Regional Weather Roundup
Issued by NWS Boston, MA

Current Version | Previous Version | Text Only | Print | Product List | Glossary Off
Versions: 1 2 3 4 5 6 7 8 9 10 11 12 13 14 15 16 17 18 19 20 21 22 23 24 25 26 27 28 29 30 31 32 33 34 35 36 37 38 39 40 41 42 43 44 45 46 47 48 49 50
000 ASUS41 KBOX 211010 RWRBOX REGIONAL WEATHER ROUNDUP NATIONAL WEATHER SERVICE BOSTON/NORTON MA 500 AM EST THU FEB 21 2019 NOTE: "FAIR" INDICATES FEW OR NO CLOUDS BELOW 12,000 FEET WITH NO SIGNIFICANT WEATHER AND/OR OBSTRUCTIONS TO VISIBILITY. MAZALL-211100- EASTERN MASSACHUSETTS CITY SKY/WX TMP DP RH WIND PRES REMARKS BOSTON FRZ DRZL 33 30 88 N9 29.94S FOG WCI 25 BEVERLY LGT SNOW 33 30 88 SE5 29.94F VSB 1 WCI 29 LAWRENCE MIX PCPN 25 23 92 N5 29.98S FOG WCI 19 BEDFORD NOT AVBL BLUE HILL N/A 29 29 100 N6 29.89R WCI 23 NORWOOD CLOUDY 33 29 85 N7 29.93S FOG WCI 27 MARSHFIELD NOT AVBL PLYMOUTH LGT RAIN 33 31 92 VRB3 29.89S FOG TAUNTON LGT RAIN 34 32 92 CALM 29.88F FOG NEW BEDFORD MIX PCPN 34 34 100 E6 29.86F FOG WCI 29 $$ MAZALL-211100- CAPE COD AND THE ISLANDS CITY SKY/WX TMP DP RH WIND PRES REMARKS FALMOUTH DRIZZLE 34 34 100 SE15G22 29.86F WCI 24 HYANNIS LGT RAIN 36 34 92 SE13G24 29.85F FOG WCI 27 CHATHAM LGT RAIN 36 34 92 S12G25 29.89F FOG WCI 28 NANTUCKET LGT SNOW 37 36 96 SE23G30 29.85F FOG WCI 26 MARTHAS VNYRD LGT RAIN 36 36 100 S10G20 29.84F FOG WCI 28 $$ MAZALL-211100- CENTRAL AND WESTERN MASSACHUSETTS CITY SKY/WX TMP DP RH WIND PRES REMARKS WORCESTER FRZ RAIN 26 24 92 NE7 29.87F FOG WCI 18 FITCHBURG FRZ RAIN 26 24 92 N5 29.95S FOG WCI 20 ORANGE CLOUDY 28 24 85 CALM 29.92F FOG SPRINGFIELD FRZ DRZL 28 26 93 N6 29.91R WCI 21 WESTFIELD FLURRIES 25 23 92 N8 29.92F WCI 16 NORTH ADAMS CLOUDY 30 26 85 E9 29.87S WCI 22 PITTSFIELD CLOUDY 26 23 88 CALM 29.85S $$ RIZALL-211100- RHODE ISLAND CITY SKY/WX TMP DP RH WIND PRES REMARKS PROVIDENCE LGT RAIN 33 32 96 NE6 29.88F FOG WCI 28 NEWPORT LGT RAIN 36 36 100 SE8 29.84F FOG WCI 30 BLOCK ISLAND CLOUDY 41 40 96 SE15G24 29.82F SMITHFIELD MIX PCPN 31 30 96 N8 29.88F FOG WCI 23 WESTERLY LGT RAIN 40 40 100 E7 29.84F FOG $$ CTZALL-211100- CONNECTICUT CITY SKY/WX TMP DP RH WIND PRES REMARKS BRADLEY INTL CLOUDY 28 25 88 N7 29.91F WCI 21 HARTFORD CLOUDY 29 27 92 N7 29.92F FOG WCI 22 BRIDGEPORT CLOUDY 35 34 96 N8 29.87F WCI 29 DANBURY CLOUDY 32 30 92 CALM 29.89F GROTON NOT AVBL NEW HAVEN CLOUDY 35 32 88 N9 29.87F WCI 28 CHESTER CLOUDY 34 32 93 N7 29.85F FOG WCI 28 MERIDEN CLOUDY 31 29 92 VRB6 29.90S WCI 25 WILLIMANTIC FRZ RAIN 31 30 96 NW9 29.90F FOG WCI 23 OXFORD CLOUDY 30 30 100 N6 29.87S WCI 24 $$ MEZ002-015-021-024-NHZ003-005-008-011-012-014-VTZ005-008-211100- NORTHERN NEW ENGLAND CITY SKY/WX TMP DP RH WIND PRES REMARKS PORTLAND ME LGT SNOW 24 22 91 VRB5 30.00F VSB 1 WCI 18 BANGOR ME SNOW 20 18 92 SE3 30.03F VSB 1/2 CONCORD NH LGT SNOW 22 20 92 N6 29.97F FOG WCI 14 MANCHESTER NH FRZ DRZL 25 22 88 NE6 29.95F FOG WCI 18 NASHUA NH LGT SNOW 26 26 100 NE3 29.96F FOG PORTSMOUTH NH NOT AVBL JAFFREY NH N/A 26 25 96 CALM 29.90S FOG KEENE NH LGT SNOW 24 22 91 CALM 29.93F FOG BURLINGTON VT CLOUDY 29 25 85 S17G26 29.81F WCI 17 MT. WASHINGTON SNOW 14 14 100 SW58G71 N/A VSB 1/16WCI -12 $$ NYZ052-076-211100- EASTERN NEW YORK CITY SKY/WX TMP DP RH WIND PRES REMARKS ALBANY CLOUDY 32 27 81 S9 29.88F WCI 24 NEW YORK CITY CLOUDY 34 32 92 NW8 29.90S WCI 27 $$ ANZALL-211100- MARINE OBSERVATIONS STATION/POSITION TIME TEMP WIND PRES VSBY WAVE AIR SEA DIR/SP/G HT/PER (UTC) (F) (DEG/KT/KT) (MB) (MI) (FT/S) BOSTON BUOY 0850 34 39 130/ 21/ 27 1013.4 4/ 5 BUZZARDS BAY 0900 37 130/ 29/ 32 1011.0F NANTUCKET SOUND 0940 36 34 140/ 21/ 27 1011.1F MASS BAY-STELLWA 0904 33 37 160/ 17/ 21 1012.9F 1 3/4 5/ 5 ISLE OF SHOALS 0900 32 150/ 13/ 14 1015.2F S OF BLOCK IS 0930 42 N/A 9/ 7 $$ ......................KEY......................... SKY/WX - SKY CONDITION/PRESENT WEATHER TMP - TEMPERATURE IN FAHRENHEIT DWPT - DEWPOINT IN FAHRENHEIT RH - RELATIVE HUMIDITY IN PERCENT WIND - DIRECTION AND SPEED IN MPH PRES - MEAN SEA LEVEL PRESSURE IN INCHES OF HG WCI - WIND CHILL INDEX VSB - VISIBILITY IN MILES HX - HEAT INDEX TC - TEMPERATURE IN CELSIUS VRB - VARIABLE WIND DIRECTION N/A - NOT AVAILABLE

USA.gov is the U.S. government's official web portal to all federal, state and local government web resources and services.